Regional Weather Roundup
Issued by NWS

Home | Current Version | Previous Version | Text Only | Print | Product List | Glossary Off
Versions: 1 2 3 4 5 6 7 8 9 10 11 12 13 14 15 16 17 18 19 20 21 22 23 24 25 26 27 28 29 30 31 32 33 34 35 36 37 38 39 40 41 42 43 44 45 46 47

000
ASUS45 KSLC 291510
RWRUT

UTAH REGIONAL WEATHER ROUNDUP
NATIONAL WEATHER SERVICE SALT LAKE CITY UT
800 AM MST THU JAN 29 2015

UTZ001>011-023>025-291600-

NORTHERN UTAH

CITY           SKY/WX    TMP DP  RH WIND       PRES   REMARKS
BRIGHAM CITY   CLEAR     30  29  93 NW3       30.37F
HILL AFB       PTCLDY    38  28  66 E14G21    30.34F WCI  30
LOGAN          CLOUDY    35  32  88 CALM      30.40S
OGDEN          CLEAR     29  29 100 NW6       30.35S FOG     WCI  23
PROVO AIRPORT  PTCLDY    28  28 100 CALM      30.36R FOG
SALT LAKE CITY MOCLDY    30  28  92 N5        30.36S WCI  25
VERNAL         PTCLDY    29  25  85 NW3       30.40R
WENDOVER       CLOUDY    34  28  80 CALM      30.36R
HEBER CITY     CLOUDY    30  28  93 CALM      30.39S
WEST JORDAN    CLEAR     30  30 100 CALM      30.36S

$$

UTZ012>022-026-027-291600-

SOUTHERN/CENTRAL UTAH

CITY           SKY/WX    TMP DP  RH WIND       PRES   REMARKS
BLANDING       CLOUDY    36  28  74 CALM      30.41R
BRYCE CANYON   CLOUDY    31  27  85 CALM      30.35R
CEDAR CITY       N/A     35  31  85 SW3       30.30R
DELTA          CLOUDY    29  29  99 W5        30.33R WCI  24
HANKSVILLE     MOCLDY    30  28  93 CALM      30.38R
MILFORD        MOCLDY    32  30  92 CALM      30.32R FOG
MOAB/CYNLANDS  CLEAR     31  28  89 W6        30.33R WCI  25
PRICE          MOCLDY    38  25  59 NW3       30.34R
ST GEORGE      MOSUNNY   46  37  71 S3        30.26R
KANAB          CLOUDY    41  32  70 N6        30.33R

$$

REGIONAL REPORTS     COLORADO/ARIZONA

CITY           SKY/WX    TMP DP  RH WIND       PRES   REMARKS
CRAIG, CO      FOG       26  26 100 CALM      30.42R VSB 3/4
GRAND JUNCTION PTCLDY    32  27  81 SE14      30.36R WCI  22
RIFLE          PTCLDY    28  24  85 CALM      30.39S
MONTROSE       MOCLDY    28  24  85 SE5       30.39S WCI  23
CORTEZ         MOCLDY    31  27  85 CALM      30.35R
PAGE, AZ       NOT AVBL
GRAND CANYON   CLOUDY    41  28  60 E8G16     30.28R
KINGMAN        CLOUDY    45  42  89 NE3       30.16R
FLAGSTAFF      CLOUDY    38  27  64 E6        30.28R WCI  33

$$

REGIONAL REPORTS    NEVADA/IDAHO/WYOMING

CITY           SKY/WX    TMP DP  RH WIND       PRES   REMARKS
LAS VEGAS, NV  CLOUDY    54  44  69 S8        30.14R
ELY            MOCLDY    24  23  96 S7        30.33R WCI  16
ELKO           PTCLDY    25  23  92 CALM      30.31R
POCATELLO, ID  FOG       32  32 100 NE8       30.43S VSB 1/2 WCI  25
BURLEY         CLOUDY    36  32  85 NE9       30.40S WCI  29
EVANSTON, WY   FOG       25  23  92 NE7       30.39S VSB<1/4 WCI  17
ROCK SPRINGS   CLEAR     28  27  96 E5        30.42R WCI  23

$$



USA.gov is the U.S. government's official web portal to all federal, state and local government web resources and services.